FW1340 Weather Reports


Display with metric or nautical units.
time (UTC)temp
F
wind
direction
speed
MPH
gust
MPH
rain 1hr
in
rain 24hr
in
rain mn
in
humidity
%
barometer
mb
20260904190002 71 256 0.0 0.0 0.00 0.00 0.00 58 1014.3
20260904184602 71 319 0.0 0.0 0.00 0.00 0.00 60 1014.3
20260904183118 72 271 0.0 0.0 0.00 0.00 0.00 60 1014.3
20260904181558 71 300 0.0 0.0 0.00 0.00 0.00 61 1014.3
20260904180118 71 261 0.0 0.0 0.00 0.00 0.00 62 1014.4
20260904174602 70 273 0.0 0.0 0.00 0.00 0.00 64 1014.4
20260904173047 68 278 0.0 0.0 0.00 0.00 0.00 67 1014.4
20260904171552 68 266 0.0 0.0 0.00 0.00 0.00 68 1014.3
20260904170049 68 231 0.0 0.0 0.00 0.00 0.00 67 1014.2
20260904164540 68 239 0.0 0.0 0.00 0.00 0.00 69 1014.0
20260904163035 66 258 0.0 0.0 0.00 0.00 0.00 71 1014.0
20260904161533 66 256 0.0 0.0 0.00 0.00 0.00 72 1013.9
20260904160028 65 240 0.0 0.0 0.00 0.00 0.00 74 1013.9
20260904154527 64 248 0.0 0.0 0.00 0.00 0.00 76 1013.9
20260904153021 63 228 0.0 0.0 0.00 0.00 0.00 78 1013.8
20260904151518 62 257 0.0 0.0 0.00 0.00 0.00 80 1013.9
20260904150019 61 238 0.0 0.0 0.00 0.00 0.00 85 1013.8
20260904144508 60 230 0.0 0.0 0.00 0.00 0.00 85 1013.5
20260904143008 60 240 0.0 0.0 0.00 0.00 0.00 84 1013.3
20260904141601 61 257 0.0 0.0 0.00 0.00 0.00 84 1013.2
20260904140059 61 257 0.0 0.0 0.00 0.00 0.00 84 1013.0
20260904134557 61 257 0.0 0.0 0.00 0.00 0.00 83 1012.8
20260904133051 62 265 0.0 0.0 0.00 0.00 0.00 83 1012.7
20260904131551 62 260 0.0 0.0 0.00 0.00 0.00 83 1012.6
20260904130050 62 259 0.0 0.0 0.00 0.00 0.00 83 1012.5
20260904124547 62 252 0.0 0.0 0.00 0.00 0.00 84 1012.4
20260904123046 62 257 0.0 0.0 0.00 0.00 0.00 84 1012.3
20260904121545 62 248 0.0 0.0 0.00 0.00 0.00 85 1012.3
20260904120053 62 264 0.0 0.0 0.00 0.00 0.00 86 1012.2
20260904114545 62 262 0.0 0.0 0.00 0.00 0.00 85 1012.2
20260904113042 62 247 0.0 0.0 0.00 0.00 0.00 83 1012.1
20260904111541 62 252 0.0 0.0 0.00 0.00 0.00 84 1012.1
20260904110043 62 266 0.0 0.0 0.00 0.00 0.00 84 1012.0
20260904104538 62 260 0.0 0.0 0.00 0.00 0.00 84 1012.0
20260904103039 63 271 0.0 0.0 0.00 0.00 0.00 85 1011.9
20260904101536 63 242 0.0 0.0 0.00 0.00 0.00 85 1011.7
20260904100040 63 275 0.0 0.0 0.00 0.00 0.00 85 1011.8
20260904094541 63 248 0.0 0.0 0.00 0.00 0.00 86 1011.8
20260904093134 63 261 0.0 0.0 0.00 0.00 0.00 87 1011.7
20260904091536 63 252 0.0 0.0 0.00 0.00 0.00 87 1011.7
20260904090032 63 257 0.0 0.0 0.00 0.00 0.00 88 1011.7
20260904084534 63 250 0.0 0.0 0.00 0.00 0.00 87 1011.7
20260904083030 63 259 0.0 0.0 0.00 0.00 0.00 87 1011.8
20260904081528 63 269 0.0 0.0 0.00 0.00 0.00 87 1011.8
20260904080028 63 269 0.0 0.0 0.00 0.00 0.00 87 1011.8
20260904074526 63 277 0.0 0.0 0.00 0.00 0.00 87 1011.8
20260904073024 64 263 0.0 0.0 0.00 0.00 0.00 86 1011.9
20260904071522 64 240 0.0 0.0 0.00 0.00 0.00 84 1011.9
20260904070019 65 275 0.0 0.0 0.00 0.00 0.00 83 1011.8
20260904064523 65 255 0.0 0.0 0.00 0.00 0.00 83 1011.8
20260904063026 65 267 0.0 0.0 0.00 0.00 0.00 83 1011.8
20260904061533 65 309 0.0 0.0 0.00 0.00 0.00 83 1011.8
20260904060022 65 271 0.0 0.0 0.00 0.00 0.00 83 1011.8
20260904054521 65 276 0.0 0.0 0.00 0.00 0.00 82 1011.8
20260904053016 65 255 0.0 0.0 0.00 0.00 0.00 82 1011.8
20260904051516 66 254 0.0 0.0 0.00 0.00 0.00 82 1011.8
20260904050026 66 264 0.0 0.0 0.00 0.00 0.00 82 1011.8
20260904044515 66 263 0.0 0.0 0.00 0.00 0.00 82 1011.8
20260904043015 66 259 0.0 0.0 0.00 0.00 0.00 82 1011.9
20260904041518 66 232 0.0 0.0 0.00 0.00 0.00 82 1011.8
20260904040031 66 275 0.0 0.0 0.00 0.00 0.00 81 1011.7
20260904034514 66 321 0.0 0.0 0.00 0.00 0.00 82 1011.8
20260904033012 67 270 0.0 0.0 0.00 0.00 0.00 81 1011.5
20260904031519 67 264 0.0 0.0 0.00 0.00 0.00 81 1011.3
20260904030014 68 264 0.0 0.0 0.00 0.00 0.00 79 1011.1
20260904024512 69 273 0.0 0.0 0.00 0.00 0.00 77 1011.2
20260904023016 69 302 0.0 0.0 0.00 0.00 0.00 74 1011.2
20260904021525 70 325 0.0 0.0 0.00 0.00 0.00 73 1011.2
20260904020009 70 242 0.0 0.0 0.00 0.00 0.00 73 1011.0
20260904014507 71 261 0.0 0.0 0.00 0.00 0.00 71 1011.2
20260904013129 72 324 0.0 0.0 0.00 0.00 0.00 68 1011.3
20260904011505 73 313 0.0 0.0 0.00 0.00 0.00 66 1011.4
20260904010005 74 323 0.0 0.0 0.00 0.00 0.00 66 1011.4
20260904004504 74 260 0.0 0.0 0.00 0.00 0.00 64 1011.3
20260904003008 76 275 0.0 0.0 0.00 0.00 0.00 61 1011.2
20260904001503 77 246 0.0 0.0 0.00 0.00 0.00 60 1011.2
20260904000005 76 323 0.0 0.0 0.00 0.00 0.00 60 1011.3
20260903234503 78 284 0.0 0.0 0.00 0.00 0.00 57 1011.3
20260903233100 80 250 0.0 0.0 0.00 0.00 0.00 55 1011.3
20260903231607 79 273 0.0 0.0 0.00 0.00 0.00 55 1011.4
20260903230058 79 284 0.0 0.0 0.00 0.00 0.00 56 1011.6
20260903224555 80 244 0.0 0.0 0.00 0.00 0.00 55 1011.7
20260903223052 79 259 0.0 0.0 0.00 0.00 0.00 56 1011.8
20260903221550 78 247 0.0 0.0 0.00 0.00 0.00 57 1012.2
20260903220048 79 282 0.0 0.0 0.00 0.00 0.00 56 1012.4
20260903214546 79 308 0.0 0.0 0.00 0.00 0.00 55 1012.5
20260903213051 79 260 0.0 0.0 0.00 0.00 0.00 55 1012.5
20260903211544 78 309 0.0 0.0 0.00 0.00 0.00 55 1012.6
20260903210042 77 321 0.0 0.0 0.00 0.00 0.00 57 1012.8
20260903204542 78 320 0.0 0.0 0.00 0.00 0.00 56 1012.9
20260903203039 77 15 0.0 0.0 0.00 0.00 0.00 59 1013.0
20260903201535 76 261 0.0 0.0 0.00 0.00 0.00 59 1013.0
20260903200034 77 270 0.0 0.0 0.00 0.00 0.00 56 1013.2
20260903194530 77 173 0.0 0.0 0.00 0.00 0.00 56 1013.4
20260903193028 76 226 0.0 0.0 0.00 0.00 0.00 57 1013.7
20260903191535 75 242 0.0 0.0 0.00 0.00 0.00 59 1013.9